sat.trackr.live / text

‹ back to catalog

BANDWAGON-4 OBJECT D

NORAD 66296 · 2025-248D

PAYLOAD ACTIVE UNKNOWN

§ Identity

Operator
Country
TBD
Launch date
2025-11-02
Launch site
AFETR
Launch vehicle
Mass (kg)
RCS (m²)

External: N2YO · Heavens-Above · Gunter

§ Orbital elements

Epoch: 2026-09-20T21:37:11.168544Z

Period
94.57 min
Inclination
45.4034°
Eccentricity
0.0004728
Mean motion
15.22740181 rev/d
Perigee alt
494.3 km
Apogee alt
500.8 km
Semi-major
6,875.7 km
B*
1.8894e-4
RAAN
325.7873°
Arg perigee
256.7817°
Mean anomaly
103.2543°
Rev number
4,911

§ Raw data

BANDWAGON-4 OBJECT D1 66296U 25248D   26263.90082371  .00004203  00000+0  18894-3 0  99902 66296  45.4034 325.7873 0004728 256.7817 103.2543 15.22740181 49117

JSON: /api/v1/satellites/66296 · /tle

For live sub-satellite position, see the globe view (requires WebGL).

§ Visibility from observer

Set your observer location to see the next 7 days of passes ≥ 10°. The values pass through the URL so the page stays shareable.

No JS? Fill the form by hand. The geolocation button needs JavaScript.